Location: Eexterzandvoort
(53.0303°N, 6.7884°E)
Time: 17:42:00
(UTC+00:00)

NOSS 2-3 (C) - Pass Details

Date: 19 May 2025
Orbit: 469 x 1713 km, 63.3° (Epoch: 17 June)

Event Time Altitude Azimuth Distance (km) Brightness Sun altitude
Rises 20:11:39 0° 240° (WSW) 2,504 6.9 -5.4°
Reaches altitude 10° 20:13:41 10° 245° (WSW) 1,649 6.0 -5.7°
Maximum altitude 20:17:11 55° 324° (NW) 626 4.1 -6.0°
Drops below altitude 10° 20:21:17 10° 43° (NE) 1,932 6.1 -6.5°
Sets 20:23:51 0° 48° (NE) 2,994 7.1 -6.7°
